Location: Church Tower
(37.7144°N, 119.6316°W)
Time: 20:11:28
(UTC+00:00)

USA 267 - Pass Details

Date: 15 November 2025
Orbit: 1100 x 1108 km, 123.0° (Epoch: 21 November)

Event Time Altitude Azimuth Distance (km) Brightness Sun altitude
Rises 12:18:29 0° 42° (NE) 3,921 6.7 -27.8°
Reaches altitude 10° 12:21:00 10° 38° (NE) 2,960 5.9 -27.3°
Maximum altitude 12:27:22 59° 321° (NW) 1,254 3.3 -26.0°
Enters shadow 12:28:15 55° 290° (WNW) 1,305 3.2 -25.9°
